Location: Skalnate Pleso
(49.1889°N, 20.2450°E)
Time: 00:22:16
(UTC+02:00)

Cosmos 1269 Rocket - Pass Details

Date: 23 February 2020
Orbit: 772 x 780 km, 74.1° (Epoch: 05 April)

Event Time Altitude Azimuth Distance (km) Brightness Sun altitude
Exits shadow 03:44:36 18° 344° (NNW) 1,849 6.0 -28.2°
Drops below altitude 10° 03:46:33 10° 2° (N) 2,332 6.7 -27.9°
Sets 03:49:27 0° 17° (NNE) 3,264 7.7 -27.5°
